GW2742 Weather Reports


Display with metric or nautical units.
time (UTC)temp
F
wind
direction
speed
MPH
gust
MPH
rain 1hr
in
rain 24hr
in
rain mn
in
humidity
%
barometer
mb
20260905054028 72 345 4.0 7.0 0.00 0.00 0.00 33 1012.5
20260905053528 72 342 3.0 8.0 0.00 0.00 0.00 32 1012.4
20260905053056 73 357 3.0 8.0 0.00 0.00 0.00 31 1012.2
20260905052527 73 325 3.0 7.0 0.00 0.00 0.00 32 1011.9
20260905052025 73 249 3.0 7.0 0.00 0.00 0.00 32 1011.6
20260905051552 73 309 1.0 4.0 0.00 0.00 0.00 31 1011.5
20260905051024 73 330 1.0 8.0 0.00 0.00 0.00 31 1011.5
20260905050529 74 291 1.0 8.0 0.00 0.00 0.00 30 1011.4
20260905050045 74 256 1.0 8.0 0.00 0.00 0.00 30 1011.3
20260905045527 75 248 2.0 8.0 0.00 0.00 0.00 30 1011.5
20260905045032 74 250 4.0 10.0 0.00 0.00 0.00 30 1011.6
20260905044552 74 250 4.0 10.0 0.00 0.00 0.00 31 1011.6
20260905044027 74 218 3.0 8.0 0.00 0.00 0.00 31 1011.6
20260905043528 73 4 2.0 8.0 0.00 0.00 0.00 30 1011.3
20260905043104 73 278 2.0 8.0 0.00 0.00 0.00 31 1011.5
20260905042528 73 274 1.0 7.0 0.00 0.00 0.00 31 1011.3
20260905042024 72 127 1.0 7.0 0.00 0.00 0.00 32 1011.4
20260905041544 72 56 1.0 6.0 0.00 0.00 0.00 32 1011.2
20260905041025 72 172 1.0 6.0 0.00 0.00 0.00 32 1011.3
20260905040526 71 0 1.0 8.0 0.00 0.00 0.00 33 1011.3
20260905040052 71 213 1.0 8.0 0.00 0.00 0.00 36 1011.2
20260905035528 71 207 2.0 5.0 0.00 0.00 0.00 36 1011.2
20260905035028 71 176 2.0 5.0 0.00 0.00 0.00 36 1011.2
20260905034544 71 193 1.0 10.0 0.00 0.00 0.00 36 1011.1
20260905034028 71 239 3.0 10.0 0.00 0.00 0.00 33 1011.1
20260905033527 71 252 4.0 10.0 0.00 0.00 0.00 31 1011.0
20260905033044 71 262 0.0 2.0 0.00 0.00 0.00 30 1010.8
20260905032528 71 262 0.0 2.0 0.00 0.00 0.00 31 1010.8
20260905032025 71 0 0.0 2.0 0.00 0.00 0.00 31 1010.7
20260905031553 72 0 0.0 2.0 0.00 0.00 0.00 29 1010.7
20260905031027 72 262 1.0 3.0 0.00 0.00 0.00 29 1010.6
20260905030529 72 0 1.0 3.0 0.00 0.00 0.00 29 1010.4
20260905030049 73 1 0.0 2.0 0.00 0.00 0.00 30 1010.3
20260905025527 74 0 0.0 2.0 0.00 0.00 0.00 27 1010.2
20260905025027 74 0 0.0 2.0 0.00 0.00 0.00 27 1010.2
20260905024543 75 0 0.0 3.0 0.00 0.00 0.00 29 1010.0
20260905024025 76 0 1.0 3.0 0.00 0.00 0.00 26 1010.0
20260905023532 77 0 0.0 2.0 0.00 0.00 0.00 27 1009.8
20260905023045 77 0 0.0 3.0 0.00 0.00 0.00 25 1009.8
20260905022531 77 0 0.0 3.0 0.00 0.00 0.00 25 1009.7
20260905022026 78 229 0.0 3.0 0.00 0.00 0.00 27 1009.6
20260905021553 79 0 0.0 2.0 0.00 0.00 0.00 25 1009.4
20260905021024 80 0 0.0 1.0 0.00 0.00 0.00 25 1009.3
20260905020527 80 0 0.0 1.0 0.00 0.00 0.00 22 1009.2
20260905020053 81 181 0.0 3.0 0.00 0.00 0.00 22 1009.2
20260905015524 82 0 1.0 4.0 0.00 0.00 0.00 21 1009.2
20260905015026 83 181 1.0 4.0 0.00 0.00 0.00 21 1009.1
20260905014544 84 190 0.0 5.0 0.00 0.00 0.00 20 1009.0
20260905014029 84 123 2.0 5.0 0.00 0.00 0.00 20 1009.0
20260905013525 85 0 1.0 3.0 0.00 0.00 0.00 19 1009.0
20260905013047 85 83 0.0 3.0 0.00 0.00 0.00 18 1008.9
20260905012526 85 0 1.0 3.0 0.00 0.00 0.00 19 1008.9
20260905012025 86 198 0.0 4.0 0.00 0.00 0.00 20 1008.8
20260905011607 87 0 1.0 6.0 0.00 0.00 0.00 20 1008.7
20260905011025 87 184 1.0 13.0 0.00 0.00 0.00 19 1008.7
20260905010528 88 190 4.0 13.0 0.00 0.00 0.00 18 1008.5
20260905010045 88 120 7.0 13.0 0.00 0.00 0.00 16 1008.6
20260905005525 88 75 4.0 14.0 0.00 0.00 0.00 17 1008.3
20260905005028 88 107 3.0 14.0 0.00 0.00 0.00 17 1008.5
20260905004545 88 132 5.0 12.0 0.00 0.00 0.00 18 1008.3
20260905004024 88 137 4.0 10.0 0.00 0.00 0.00 18 1008.3
20260905003524 88 110 6.0 11.0 0.00 0.00 0.00 18 1008.3
20260905003056 89 126 5.0 13.0 0.00 0.00 0.00 16 1008.3
20260905002526 89 77 5.0 13.0 0.00 0.00 0.00 17 1008.2
20260905002028 89 98 5.0 13.0 0.00 0.00 0.00 17 1008.3
20260905001553 89 124 7.0 13.0 0.00 0.00 0.00 17 1008.3
20260905001027 89 142 7.0 13.0 0.00 0.00 0.00 16 1008.3
20260905000526 89 133 5.0 12.0 0.00 0.00 0.00 16 1008.3
20260905000048 89 118 5.0 15.0 0.00 0.00 0.00 18 1008.3
20260904235527 89 65 6.0 15.0 0.00 0.00 0.00 17 1008.2
20260904235027 89 96 5.0 15.0 0.00 0.00 0.00 17 1008.5
20260904234546 89 97 6.0 15.0 0.00 0.00 0.00 18 1008.5
20260904234024 89 127 6.0 15.0 0.00 0.00 0.00 15 1008.5
20260904233528 89 74 7.0 15.0 0.00 0.00 0.00 17 1008.5
20260904233053 89 95 4.0 12.0 0.00 0.00 0.00 18 1008.6
20260904232530 89 146 6.0 12.0 0.00 0.00 0.00 16 1008.6
20260904232027 89 101 5.0 12.0 0.00 0.00 0.00 20 1008.5
20260904231548 89 160 5.0 13.0 0.00 0.00 0.00 16 1008.6
20260904231027 90 124 7.0 13.0 0.00 0.00 0.00 16 1008.6
20260904230531 90 105 5.0 9.0 0.00 0.00 0.00 17 1008.6
20260904230049 90 154 2.0 8.0 0.00 0.00 0.00 17 1008.6
20260904225525 90 90 2.0 9.0 0.00 0.00 0.00 20 1008.8
20260904225025 90 169 4.0 9.0 0.00 0.00 0.00 16 1008.7
20260904224544 90 139 4.0 9.0 0.00 0.00 0.00 18 1008.8
20260904224027 90 128 2.0 9.0 0.00 0.00 0.00 17 1008.8
20260904223526 90 117 3.0 7.0 0.00 0.00 0.00 15 1008.8
20260904223044 90 59 2.0 7.0 0.00 0.00 0.00 18 1008.9
20260904222524 90 68 2.0 8.0 0.00 0.00 0.00 19 1009.0
20260904222025 89 201 3.0 11.0 0.00 0.00 0.00 16 1009.0
20260904221544 89 64 4.0 11.0 0.00 0.00 0.00 17 1009.1
20260904221027 89 96 4.0 10.0 0.00 0.00 0.00 18 1009.1
20260904220527 89 87 4.0 10.0 0.00 0.00 0.00 16 1009.1
20260904220105 89 85 6.0 10.0 0.00 0.00 0.00 16 1009.2
20260904215530 89 125 3.0 9.0 0.00 0.00 0.00 22 1009.2
20260904215026 89 106 3.0 6.0 0.00 0.00 0.00 15 1009.2
20260904214546 89 79 1.0 5.0 0.00 0.00 0.00 16 1009.1
20260904214026 89 41 2.0 5.0 0.00 0.00 0.00 15 1009.1
20260904213527 89 33 0.0 10.0 0.00 0.00 0.00 17 1009.1
20260904213051 89 159 2.0 10.0 0.00 0.00 0.00 20 1009.1
20260904212529 89 69 2.0 7.0 0.00 0.00 0.00 16 1009.2
20260904212028 88 70 1.0 6.0 0.00 0.00 0.00 17 1009.1
20260904211545 88 287 0.0 13.0 0.00 0.00 0.00 20 1009.2
20260904211030 88 99 3.0 13.0 0.00 0.00 0.00 18 1009.2
20260904210526 88 175 5.0 10.0 0.00 0.00 0.00 18 1009.2
20260904210045 88 131 4.0 8.0 0.00 0.00 0.00 22 1009.4
20260904205529 88 325 3.0 7.0 0.00 0.00 0.00 18 1009.3
20260904205028 88 63 2.0 7.0 0.00 0.00 0.00 17 1009.4
20260904204544 88 0 3.0 12.0 0.00 0.00 0.00 16 1009.3
20260904204027 87 122 6.0 12.0 0.00 0.00 0.00 18 1009.4
20260904203527 87 91 3.0 8.0 0.00 0.00 0.00 18 1009.4
20260904203049 87 40 3.0 8.0 0.00 0.00 0.00 18 1009.4
20260904202526 87 25 1.0 6.0 0.00 0.00 0.00 19 1009.4
20260904202025 87 49 1.0 7.0 0.00 0.00 0.00 18 1009.4
20260904201600 87 349 2.0 7.0 0.00 0.00 0.00 21 1009.5
20260904201031 87 90 3.0 10.0 0.00 0.00 0.00 17 1009.6
20260904200524 87 82 4.0 10.0 0.00 0.00 0.00 22 1009.7
20260904200050 86 77 4.0 12.0 0.00 0.00 0.00 18 1009.6
20260904195525 86 142 6.0 12.0 0.00 0.00 0.00 21 1009.6
20260904195026 86 359 3.0 8.0 0.00 0.00 0.00 22 1009.7
20260904194542 86 146 4.0 8.0 0.00 0.00 0.00 19 1009.7
20260904194031 86 74 3.0 8.0 0.00 0.00 0.00 20 1009.8
20260904193527 86 84 4.0 7.0 0.00 0.00 0.00 19 1009.9
20260904193050 86 148 3.0 7.0 0.00 0.00 0.00 21 1009.9
20260904192533 86 94 4.0 7.0 0.00 0.00 0.00 19 1009.9
20260904192028 85 77 3.0 8.0 0.00 0.00 0.00 21 1010.1
20260904191544 85 89 4.0 8.0 0.00 0.00 0.00 24 1010.0
20260904191025 85 193 3.0 7.0 0.00 0.00 0.00 22 1010.1
20260904190525 85 220 2.0 10.0 0.00 0.00 0.00 24 1010.1
20260904190042 85 136 3.0 10.0 0.00 0.00 0.00 24 1010.1
20260904185524 85 311 2.0 8.0 0.00 0.00 0.00 25 1010.1
20260904185024 85 143 3.0 10.0 0.00 0.00 0.00 22 1010.3
20260904184544 84 64 5.0 10.0 0.00 0.00 0.00 24 1010.4
20260904184029 84 127 3.0 10.0 0.00 0.00 0.00 27 1010.3
20260904183530 84 89 1.0 6.0 0.00 0.00 0.00 22 1010.4
20260904183058 83 120 2.0 6.0 0.00 0.00 0.00 24 1010.7
20260904182526 83 61 2.0 6.0 0.00 0.00 0.00 22 1010.6
20260904182030 83 54 2.0 6.0 0.00 0.00 0.00 22 1010.7
20260904181544 83 42 3.0 6.0 0.00 0.00 0.00 21 1010.8
20260904181025 83 127 3.0 12.0 0.00 0.00 0.00 24 1010.7
20260904180528 83 89 4.0 12.0 0.00 0.00 0.00 22 1010.9
20260904180056 83 121 4.0 11.0 0.00 0.00 0.00 25 1010.9
20260904175525 83 150 3.0 9.0 0.00 0.00 0.00 30 1011.0
20260904175027 82 103 2.0 7.0 0.00 0.00 0.00 28 1011.0
20260904174557 82 96 2.0 5.0 0.00 0.00 0.00 24 1011.0
20260904174027 81 111 2.0 5.0 0.00 0.00 0.00 23 1011.2
20260904173527 81 112 2.0 8.0 0.00 0.00 0.00 27 1011.3
20260904173112 80 118 2.0 8.0 0.00 0.00 0.00 28 1011.3
20260904172532 80 141 4.0 8.0 0.00 0.00 0.00 26 1011.3
20260904172027 80 179 3.0 8.0 0.00 0.00 0.00 29 1011.5
20260904171553 79 91 2.0 8.0 0.00 0.00 0.00 25 1011.3
20260904171024 79 147 3.0 9.0 0.00 0.00 0.00 26 1011.3
20260904170524 79 104 5.0 10.0 0.00 0.00 0.00 24 1011.3
20260904170049 79 72 5.0 10.0 0.00 0.00 0.00 24 1011.4
20260904165524 78 82 4.0 10.0 0.00 0.00 0.00 28 1011.4
20260904165026 78 86 4.0 11.0 0.00 0.00 0.00 31 1011.5
20260904164555 77 158 5.0 11.0 0.00 0.00 0.00 26 1011.5
20260904164027 77 84 5.0 9.0 0.00 0.00 0.00 28 1011.5
20260904163534 77 90 5.0 9.0 0.00 0.00 0.00 29 1011.5
20260904163048 76 91 3.0 8.0 0.00 0.00 0.00 31 1011.5
20260904162529 75 138 4.0 8.0 0.00 0.00 0.00 31 1011.5
20260904162024 74 117 4.0 8.0 0.00 0.00 0.00 32 1011.5
20260904161543 72 0 0.0 3.0 0.00 0.00 0.00 41 1011.5
20260904161025 72 250 0.0 3.0 0.00 0.00 0.00 47 1011.3
20260904160528 71 236 1.0 3.0 0.00 0.00 0.00 44 1011.4
20260904160044 70 221 0.0 2.0 0.00 0.00 0.00 42 1011.4
20260904155525 70 0 0.0 4.0 0.00 0.00 0.00 41 1011.4
20260904155025 70 333 1.0 4.0 0.00 0.00 0.00 44 1011.5
20260904154543 69 335 1.0 4.0 0.00 0.00 0.00 44 1011.4
20260904154025 69 0 0.0 4.0 0.00 0.00 0.00 47 1011.4
20260904153527 68 0 0.0 2.0 0.00 0.00 0.00 45 1011.3
20260904153055 67 217 0.0 3.0 0.00 0.00 0.00 42 1011.4
20260904152525 67 0 1.0 3.0 0.00 0.00 0.00 43 1011.3
20260904152024 66 0 0.0 3.0 0.00 0.00 0.00 42 1011.3
20260904151547 65 252 1.0 3.0 0.00 0.00 0.00 50 1011.3
20260904151028 64 55 0.0 2.0 0.00 0.00 0.00 53 1011.3
20260904150529 63 0 0.0 2.0 0.00 0.00 0.00 47 1011.3
20260904150056 63 94 0.0 2.0 0.00 0.00 0.00 53 1011.4
20260904145527 62 0 0.0 2.0 0.00 0.00 0.00 51 1011.4
20260904145030 61 0 0.0 3.0 0.00 0.00 0.00 60 1011.5
20260904144549 60 0 1.0 3.0 0.00 0.00 0.00 57 1011.5
20260904144028 60 46 0.0 1.0 0.00 0.00 0.00 58 1011.5
20260904143524 59 0 0.0 0.0 0.00 0.00 0.00 59 1011.5
20260904143043 59 0 0.0 2.0 0.00 0.00 0.00 64 1011.6
20260904142525 58 0 0.0 2.0 0.00 0.00 0.00 66 1011.5
20260904142026 57 94 0.0 2.0 0.00 0.00 0.00 66 1011.5
20260904141544 57 0 0.0 0.0 0.00 0.00 0.00 64 1011.5
20260904141025 55 0 0.0 0.0 0.00 0.00 0.00 69 1011.5
20260904140524 54 0 0.0 0.0 0.00 0.00 0.00 69 1011.4
20260904140047 53 0 0.0 3.0 0.00 0.00 0.00 72 1011.4
20260904135527 52 0 0.0 4.0 0.00 0.00 0.00 72 1011.4
20260904135027 51 0 1.0 4.0 0.00 0.00 0.00 71 1011.3
20260904134548 50 216 2.0 4.0 0.00 0.00 0.00 73 1011.3
20260904134025 50 257 2.0 4.0 0.00 0.00 0.00 74 1011.0
20260904133525 49 0 0.0 0.0 0.00 0.00 0.00 76 1011.1
20260904133047 48 0 0.0 0.0 0.00 0.00 0.00 76 1011.0
20260904132525 47 0 0.0 0.0 0.00 0.00 0.00 77 1010.9
20260904132025 47 0 0.0 0.0 0.00 0.00 0.00 78 1011.0
20260904131545 46 0 0.0 0.0 0.00 0.00 0.00 79 1010.8
20260904131026 46 0 0.0 0.0 0.00 0.00 0.00 77 1010.6
20260904130527 46 0 0.0 0.0 0.00 0.00 0.00 77 1010.5
20260904130052 46 0 0.0 0.0 0.00 0.00 0.00 78 1010.6
20260904125529 46 0 0.0 0.0 0.00 0.00 0.00 80 1010.4
20260904125028 46 0 0.0 0.0 0.00 0.00 0.00 81 1010.4
20260904124556 46 0 0.0 0.0 0.00 0.00 0.00 81 1010.3
20260904124023 46 0 0.0 0.0 0.00 0.00 0.00 81 1010.3
20260904123525 46 0 0.0 0.0 0.00 0.00 0.00 80 1010.1
20260904123045 46 0 0.0 0.0 0.00 0.00 0.00 81 1010.1
20260904122524 46 0 0.0 0.0 0.00 0.00 0.00 80 1010.2
20260904122024 46 0 0.0 0.0 0.00 0.00 0.00 80 1010.1
20260904121543 46 0 0.0 0.0 0.00 0.00 0.00 78 1010.0
20260904121024 47 0 0.0 0.0 0.00 0.00 0.00 77 1010.0
20260904120524 47 0 0.0 2.0 0.00 0.00 0.00 77 1009.9
20260904120054 47 0 0.0 2.0 0.00 0.00 0.00 77 1010.0
20260904115528 47 358 0.0 2.0 0.00 0.00 0.00 76 1009.9
20260904115028 48 0 0.0 0.0 0.00 0.00 0.00 76 1009.9
20260904114546 48 0 0.0 1.0 0.00 0.00 0.00 75 1009.8
20260904114028 48 0 0.0 1.0 0.00 0.00 0.00 75 1009.9
20260904113524 48 0 0.0 1.0 0.00 0.00 0.00 75 1009.8
20260904113050 48 0 0.0 0.0 0.00 0.00 0.00 74 1009.7
20260904112525 48 0 0.0 1.0 0.00 0.00 0.00 73 1009.8
20260904112026 48 0 0.0 3.0 0.00 0.00 0.00 73 1009.8
20260904111544 49 0 1.0 3.0 0.00 0.00 0.00 73 1009.7
20260904111024 49 269 2.0 3.0 0.00 0.00 0.00 72 1009.9
20260904110525 49 0 1.0 3.0 0.00 0.00 0.00 72 1009.7
20260904110050 49 0 0.0 4.0 0.00 0.00 0.00 72 1009.8
20260904105527 49 83 1.0 4.0 0.00 0.00 0.00 72 1009.8
20260904105027 49 79 0.0 3.0 0.00 0.00 0.00 72 1009.8
20260904104543 50 0 0.0 3.0 0.00 0.00 0.00 69 1009.7
20260904104026 50 79 1.0 4.0 0.00 0.00 0.00 70 1009.8
20260904103528 50 94 0.0 4.0 0.00 0.00 0.00 71 1009.6
20260904103044 50 94 1.0 4.0 0.00 0.00 0.00 70 1009.7
20260904102523 50 257 1.0 3.0 0.00 0.00 0.00 72 1009.5
20260904102023 50 248 1.0 3.0 0.00 0.00 0.00 71 1009.4
20260904101555 50 248 1.0 3.0 0.00 0.00 0.00 71 1009.4
20260904101028 50 248 0.0 2.0 0.00 0.00 0.00 73 1009.5
20260904100530 50 248 0.0 2.0 0.00 0.00 0.00 72 1009.5
20260904100044 50 0 0.0 2.0 0.00 0.00 0.00 72 1009.5
20260904095527 51 247 1.0 3.0 0.00 0.00 0.00 71 1009.5
20260904095026 51 0 0.0 3.0 0.00 0.00 0.00 70 1009.4
20260904094554 51 248 1.0 3.0 0.00 0.00 0.00 69 1009.4
20260904094024 51 221 1.0 3.0 0.00 0.00 0.00 68 1009.4
20260904093524 51 0 0.0 3.0 0.00 0.00 0.00 70 1009.4
20260904093057 52 220 0.0 3.0 0.00 0.00 0.00 69 1009.4
20260904092528 52 218 1.0 4.0 0.00 0.00 0.00 67 1009.2
20260904092024 51 216 1.0 4.0 0.00 0.00 0.00 69 1009.5
20260904091550 51 176 1.0 3.0 0.00 0.00 0.00 69 1009.5
20260904091028 51 0 0.0 0.0 0.00 0.00 0.00 68 1009.2
20260904090526 52 0 0.0 0.0 0.00 0.00 0.00 70 1009.2
20260904090048 52 0 0.0 0.0 0.00 0.00 0.00 67 1009.2
20260904085526 52 0 0.0 0.0 0.00 0.00 0.00 67 1009.3
20260904085028 52 0 0.0 0.0 0.00 0.00 0.00 67 1009.3
20260904084545 52 0 0.0 1.0 0.00 0.00 0.00 67 1009.3
20260904084025 52 0 0.0 2.0 0.00 0.00 0.00 67 1009.3
20260904083525 52 0 0.0 2.0 0.00 0.00 0.00 67 1009.4
20260904083050 52 0 0.0 2.0 0.00 0.00 0.00 69 1009.5
20260904082527 53 0 0.0 2.0 0.00 0.00 0.00 68 1009.7
20260904082026 53 302 0.0 3.0 0.00 0.00 0.00 68 1009.6
20260904081605 53 0 1.0 3.0 0.00 0.00 0.00 67 1009.6
20260904081024 53 76 1.0 3.0 0.00 0.00 0.00 68 1009.7
20260904080524 53 0 0.0 0.0 0.00 0.00 0.00 67 1009.5
20260904080047 53 0 0.0 0.0 0.00 0.00 0.00 66 1009.7
20260904075525 54 0 0.0 0.0 0.00 0.00 0.00 66 1009.7
20260904075026 54 0 0.0 0.0 0.00 0.00 0.00 67 1009.8
20260904074606 54 0 0.0 0.0 0.00 0.00 0.00 66 1009.8
20260904074024 54 0 0.0 0.0 0.00 0.00 0.00 66 1009.7
20260904073527 55 0 0.0 0.0 0.00 0.00 0.00 65 1009.8
20260904073102 55 0 0.0 0.0 0.00 0.00 0.00 63 1009.7
20260904072527 56 0 0.0 0.0 0.00 0.00 0.00 62 1009.7
20260904072026 56 0 0.0 0.0 0.00 0.00 0.00 62 1009.8
20260904071544 56 0 0.0 0.0 0.00 0.00 0.00 60 1009.8
20260904071026 56 0 0.0 0.0 0.00 0.00 0.00 61 1009.9
20260904070528 56 0 0.0 0.0 0.00 0.00 0.00 60 1009.7
20260904070053 56 0 0.0 0.0 0.00 0.00 0.00 61 1009.8
20260904065524 57 0 0.0 2.0 0.00 0.00 0.00 59 1009.9
20260904065024 57 0 0.0 3.0 0.00 0.00 0.00 60 1009.8
20260904064551 57 195 1.0 3.0 0.00 0.00 0.00 60 1009.8
20260904064025 57 196 1.0 3.0 0.00 0.00 0.00 60 1009.7
20260904063527 58 0 0.0 2.0 0.00 0.00 0.00 59 1009.7
20260904063054 58 0 1.0 2.0 0.00 0.00 0.00 58 1009.7
20260904062527 58 0 0.0 2.0 0.00 0.00 0.00 57 1009.6
20260904062026 59 0 0.0 2.0 0.00 0.00 0.00 57 1009.8
20260904061543 59 0 0.0 3.0 0.00 0.00 0.00 57 1009.7
20260904061028 59 0 0.0 3.0 0.00 0.00 0.00 56 1009.8
20260904060526 60 192 2.0 3.0 0.00 0.00 0.00 56 1009.6
20260904060056 60 0 0.0 3.0 0.00 0.00 0.00 54 1009.5
20260904055524 60 231 1.0 3.0 0.00 0.00 0.00 54 1009.6
20260904055024 60 221 0.0 3.0 0.00 0.00 0.00 56 1009.7
20260904054548 61 0 1.0 3.0 0.00 0.00 0.00 55 1009.7